Regional Weather Roundup
Issued by NWS

Home | Current Version | Previous Version | Graphics & Text | Print | Product List | Glossary On
Versions: 1 2 3 4 5 6 7 8 9 10 11 12 13 14 15 16 17 18 19 20 21 22 23 24 25 26 27 28
000
ASUS45 KBOI 241910
RWRID

IDAHO REGIONAL WEATHER ROUNDUP
NATIONAL WEATHER SERVICE BOISE ID
100 PM MDT SAT SEP 24 2016

NOTE: "FAIR" INDICATES FEW OR NO CLOUDS BELOW 12000 FEET
WITH NO SIGNIFICANT WEATHER AND/OR OBSTRUCTIONS TO VISIBILITY

IDZ012-014-242000-
SOUTHWEST IDAHO


CITY           SKY/WX    TMP DP  RH WIND       PRES   REMARKS
BOISE          SUNNY     62  38  40 W14G21    30.28F
CALDWELL       SUNNY     62  38  40 W12       30.30F
MOUNTAIN HOME  SUNNY     63  38  40 NW20G28   30.29S
$$

IDZ016-017-242000-
SOUTHCENTRAL IDAHO


CITY           SKY/WX    TMP DP  RH WIND       PRES   REMARKS
BURLEY         MOSUNNY   56  41  57 W16G28    30.26R
JEROME         SUNNY     59  40  49 W28G39    30.25S
TWIN FALLS     SUNNY     59  39  47 W25G35    30.26F
$$

IDZ019>023-242000-
SOUTHEAST IDAHO


CITY           SKY/WX    TMP DP  RH WIND       PRES   REMARKS
IDAHO FALLS    PTSUNNY   56  45  66 SW18      30.21R
POCATELLO      PTSUNNY   57  44  62 SW18      30.24F
REXBURG        CLOUDY    56  33  42 NW9       30.19R
$$

IDZ006-010-011-018-031-032-242000-
CENTRAL IDAHO MOUNTAINS


CITY           SKY/WX    TMP DP  RH WIND       PRES   REMARKS
MCCALL         SUNNY     55  33  43 SW10      30.29S
HAILEY         SUNNY     61  28  29 SE7       30.22S
STANLEY          N/A     54  29  38 N12       30.29S
SALMON         PTSUNNY   57  32  38 N8        30.25S
CHALLIS        SUNNY     58  30  34 N13       30.24F
$$

IDZ002-004-006-007-026-242000-
NORTHERN IDAHO


CITY           SKY/WX    TMP DP  RH WIND       PRES   REMARKS
LEWISTON       SUNNY     65  40  39 SW5       30.32R
LOWELL           N/A     63  50  62 VRB3      30.32F
COEUR D`ALENE  NOT AVBL
MULLAN PASS    CLOUDY    40  39  97 VRB5      30.31R FOG
$$




USA.gov is the U.S. government's official web portal to all federal, state and local government web resources and services.